Location: Austin
(30.3000°N, 97.7500°W)
Time: 03:08:04
(UTC-06:00)

SL-08 R/B - Pass Details

Date: 20 November 2023
Orbit: 670 x 736 km, 98.5° (Epoch: 04 December)

Event Time Altitude Azimuth Distance (km) Brightness Sun altitude
Rises 18:01:56 0° 26° (NNE) 3,020 6.2 -6.8°
Reaches altitude 10° 18:04:25 10° 37° (NE) 2,101 5.3 -7.3°
Maximum altitude 18:08:25 30° 98° (E) 1,205 4.1 -8.1°
Drops below altitude 10° 18:12:25 10° 159° (SSE) 2,094 5.8 -9.0°
Sets 18:14:52 0° 170° (S) 3,009 6.7 -9.5°
